Вернуться в каталог

STARLINK-34760

АктивенСвязьVLEO
NORAD 65359·PAYLOAD·🇺🇸 United States

Запущен Aug 28, 2025 с Cape Canaveral Space Force Station

Loading…

Ближайшие Пролёты (ближайшие 24 часа)

TLE

СвежийSource: CelesTrak SupGP

Эпоха: Sep 15, 2026, 02:27 UTC

1 65359C 25190J   26258.10256944  .00050047  00000+0  14784-2 0  2588
2 65359  53.1585   6.7450 0001202  86.1875  77.7909 15.34371090    12

Отслеживайте STARLINK-34760 в реальном времени с AllMySat

Download on the App Store